Terug naar catalogus

QIANFAN-86

ActiefCommunicatiePO
NORAD 63172·PAYLOAD·🇨🇳 China

Gelanceerd Mar 11, 2025 vanaf Wenchang Space Launch Site

Loading…

Volgende Passages (komende 24 uur)

TLE

VersSource: Space-Track

Epoch: Sep 14, 2026, 21:14 UTC

1 63172U 25046P   26257.88480950  .00000067  00000-0  85057-4 0  9992
2 63172  88.9653 291.1206 0012806  60.3006 299.9418 13.51025311 84830

Volg QIANFAN-86 in realtime met AllMySat

Download on the App Store